Osceola Municipal, IA

2:33 PM CDT on March 24, 2017 (GMT -0500)
Osceola Municipal

Weather History for KI75 - May, 2013

Change the Weather History Date:

Saturday, May 4, 2013

  Actual Average (KCNC) Record (KCNC)
Temperature  
Mean Temperature 40 °F -  
Max Temperature 49 °F 69 °F 90 °F (1952)
Min Temperature 32 °F 44 °F 27 °F (1954)
Degree Days  
Heating Degree Days 24    
Moisture  
Dew Point 39 °F    
Average Humidity 96    
Maximum Humidity 98    
Minimum Humidity 91    
Precipitation  
Precipitation 0.01 in - - ()
Sea Level Pressure  
Sea Level Pressure 29.95 in    
Wind  
Wind Speed 14 mph (NNW)    
Max Wind Speed 22 mph    
Max Gust Speed 26 mph    
Visibility 4 miles    
Events Fog , Rain    
Averages and records for this station are not official NWS values.
T = Trace of Precipitation, MM = Missing Value Source: NWS Daily Summary

Daily Weather History Graph

Daily Weather History Graph

Search for Another Location

Airport or City:

Trip Planner

Search our weather history database for the weather conditions in past years. The results will help you decide how hot, cold, wet, or windy it might be!

Date:

Astronomy

May. 04, 2013 Rise Set
Actual Time 6:08 AM CDT 8:15 PM CDT
Civil Twilight 5:38 AM CDT 8:45 PM CDT
Nautical Twilight 5:01 AM CDT 9:22 PM CDT
Astronomical Twilight 4:21 AM CDT 10:03 PM CDT
Moon 3:10 AM CDT (5/4) 3:11 PM CDT (5/4)
Length of Visible Light 15h 06m
Length of Day
14h 06m
Waning Crescent, 27% of the Moon is Illuminated
May 4
Waning Crescent
May 9
New
May 17
First Quarter
May 24
Full
May 31
Last Quarter

Hourly Weather History & Observations

Time (CDT) Temp. Windchill Dew Point Humidity Pressure Visibility Wind Dir Wind Speed Gust Speed Precip Events Conditions
12:15 AM 32.2 °F 19.7 °F 31.6 °F 98% 29.89 in 7.0 mi North 21.9 mph 26.5 mph 0.01 in Rain Light Rain
12:35 AM 32.4 °F 20.6 °F 31.8 °F 98% 29.88 in 10.0 mi North 19.6 mph 26.5 mph 0.01 in Rain Light Rain
12:55 AM 32.4 °F 20.6 °F 31.8 °F 98% 29.88 in 10.0 mi North 19.6 mph 24.2 mph 0.01 in Rain Light Rain
1:15 AM 32.5 °F 20.5 °F 32.0 °F 98% 29.86 in 10.0 mi North 20.7 mph - N/A Rain Light Rain
1:35 AM 32.9 °F 22.0 °F 32.0 °F 96% 29.86 in 10.0 mi North 17.3 mph 26.5 mph N/A Rain Light Rain
1:55 AM 32.9 °F 21.6 °F 32.0 °F 96% 29.86 in 10.0 mi North 18.4 mph 25.3 mph N/A   Light Drizzle
2:15 AM 32.9 °F 22.0 °F 32.0 °F 96% 29.86 in 10.0 mi North 17.3 mph 25.3 mph N/A   Overcast
2:35 AM 33.1 °F 21.9 °F 32.0 °F 96% 29.84 in 10.0 mi North 18.4 mph 25.3 mph N/A Rain Light Rain
2:55 AM 33.1 °F 23.9 °F 32.2 °F 96% 29.86 in 10.0 mi North 12.7 mph 21.9 mph N/A   Overcast
3:15 AM 33.3 °F 23.7 °F 32.4 °F 96% 29.85 in 10.0 mi North 13.8 mph - N/A   Overcast
3:35 AM 33.4 °F 23.9 °F 32.5 °F 96% 29.85 in 10.0 mi North 13.8 mph - N/A   Overcast
3:55 AM 33.4 °F 23.5 °F 32.5 °F 96% 29.85 in 10.0 mi North 15.0 mph - N/A   Overcast
4:15 AM 33.8 °F 25.3 °F 32.9 °F 96% 29.85 in 7.0 mi North 11.5 mph - N/A   Overcast
4:35 AM 33.8 °F 23.5 °F 32.9 °F 96% 29.85 in 7.0 mi NNW 16.1 mph - N/A   Overcast
4:55 AM 33.8 °F 24.8 °F 33.1 °F 97% 29.86 in 5.0 mi North 12.7 mph - N/A   Overcast
5:15 AM 34.0 °F 25.0 °F 33.3 °F 97% 29.86 in 2.5 mi North 12.7 mph 18.4 mph N/A   Overcast
5:35 AM 34.2 °F 25.7 °F 33.6 °F 98% 29.86 in 1.5 mi North 11.5 mph - N/A   Overcast
5:55 AM 34.3 °F 24.6 °F 33.8 °F 98% 29.86 in 1.0 mi North 15.0 mph 18.4 mph N/A   Overcast
6:15 AM 34.3 °F 24.2 °F 33.6 °F 97% 29.86 in 0.8 mi NNW 16.1 mph - N/A   Overcast
6:35 AM 34.3 °F 25.9 °F 33.6 °F 97% 29.87 in 1.0 mi North 11.5 mph - N/A   Light Drizzle
6:55 AM 34.5 °F 25.3 °F 33.8 °F 97% 29.88 in 0.8 mi NNW 13.8 mph - N/A   Overcast
7:15 AM 34.7 °F 26.9 °F 33.8 °F 97% 29.88 in 0.8 mi NNW 10.4 mph - N/A   Overcast
7:35 AM 34.7 °F 25.9 °F 33.8 °F 97% 29.88 in 1.0 mi NNW 12.7 mph - N/A   Overcast
7:55 AM 34.9 °F 25.7 °F 34.2 °F 97% 29.89 in 0.8 mi NNW 13.8 mph - N/A   Overcast
8:15 AM 34.9 °F 26.2 °F 34.2 °F 97% 29.89 in 0.5 mi NNW 12.7 mph - N/A Fog Fog
8:35 AM 35.2 °F 27.1 °F 34.5 °F 97% 29.90 in 0.8 mi NNW 11.5 mph - N/A   Overcast
8:55 AM 35.6 °F 28.0 °F 34.7 °F 97% 29.91 in 0.8 mi NNW 10.4 mph - N/A   Overcast
9:15 AM 35.6 °F 28.0 °F 34.9 °F 97% 29.92 in 0.2 mi North 10.4 mph - N/A Fog Fog
9:35 AM 36.3 °F 28.9 °F 35.6 °F 97% 29.92 in 0.2 mi NNW 10.4 mph - N/A Fog Fog
9:55 AM 36.9 °F 29.6 °F 36.1 °F 97% 29.93 in 0.2 mi NNW 10.4 mph - N/A Fog Fog
10:15 AM 37.0 °F 31.0 °F 36.5 °F 98% 29.94 in 0.2 mi NNW 8.1 mph - N/A Fog Fog
10:35 AM 37.9 °F 30.0 °F 37.4 °F 98% 29.94 in 0.2 mi NNW 12.7 mph - N/A Fog Fog
10:55 AM 38.5 °F 31.6 °F 37.8 °F 97% 29.95 in 0.2 mi NNW 10.4 mph - N/A Fog Fog
11:15 AM 39.2 °F 32.5 °F 38.3 °F 97% 29.95 in 0.5 mi NNW 10.4 mph - N/A Fog Fog
11:35 AM 40.1 °F 34.1 °F 39.2 °F 97% 29.97 in 0.5 mi North 9.2 mph - N/A Fog Fog
11:55 AM 41.0 °F 35.8 °F 40.1 °F 97% 29.97 in 0.5 mi North 8.1 mph - N/A Fog Fog
12:15 PM 41.9 °F 36.9 °F 41.0 °F 97% 29.97 in 0.5 mi North 8.1 mph - N/A Fog Fog
12:35 PM 42.8 °F 38.6 °F 41.9 °F 97% 29.98 in 1.2 mi North 6.9 mph - N/A   Overcast
12:55 PM 43.7 °F 39.1 °F 42.8 °F 97% 29.97 in 1.0 mi NNW 8.1 mph - N/A   Overcast
1:15 PM 44.6 °F 39.7 °F 43.7 °F 97% 29.97 in 1.5 mi NNW 9.2 mph - N/A   Overcast
1:35 PM 44.8 °F 39.9 °F 43.9 °F 97% 29.97 in 1.5 mi NNW 9.2 mph - N/A   Overcast
1:55 PM 45.1 °F 40.3 °F 44.2 °F 97% 29.98 in 1.2 mi NNW 9.2 mph - N/A   Overcast
2:15 PM 45.1 °F 40.8 °F 44.1 °F 96% 29.98 in 0.5 mi NNW 8.1 mph - N/A Fog Fog
2:35 PM 45.5 °F 39.9 °F 44.4 °F 96% 29.98 in 0.8 mi NNW 11.5 mph - N/A   Overcast
2:55 PM 47.1 °F - 45.9 °F 95% 29.98 in 2.0 mi NNW 10.4 mph - N/A   Overcast
3:15 PM 47.5 °F - 46.0 °F 95% 29.98 in 3.0 mi NNW 9.2 mph - N/A   Overcast
3:35 PM 48.2 °F - 46.6 °F 94% 29.98 in 3.0 mi NNW 11.5 mph - N/A   Overcast
3:55 PM 48.6 °F - 46.4 °F 92% 29.98 in 3.0 mi NNW 13.8 mph - N/A   Overcast
4:15 PM 49.1 °F - 47.3 °F 93% 29.98 in 3.0 mi NNW 12.7 mph - N/A   Overcast
4:35 PM 48.9 °F - 46.6 °F 92% 29.98 in 3.0 mi NNW 9.2 mph - N/A   Overcast
4:55 PM 49.1 °F - 46.9 °F 92% 29.98 in 3.0 mi North 12.7 mph - N/A   Overcast
5:15 PM 48.6 °F - 46.4 °F 92% 29.98 in 4.0 mi NNW 11.5 mph - N/A   Overcast
5:35 PM 48.7 °F - 46.4 °F 92% 29.99 in 5.0 mi NW 12.7 mph - N/A   Overcast
5:55 PM 48.4 °F - 45.9 °F 91% 29.99 in 5.0 mi NNW 13.8 mph - N/A   Overcast
6:15 PM 47.8 °F - 45.5 °F 92% 30.00 in 5.0 mi NNW 10.4 mph - N/A   Overcast
6:35 PM 47.3 °F - 45.1 °F 92% 30.01 in 3.0 mi NNW 10.4 mph - N/A Rain Rain
6:55 PM 46.8 °F - 45.1 °F 94% 30.01 in 2.0 mi NW 9.2 mph - N/A   Drizzle
7:15 PM 45.7 °F 40.2 °F 44.2 °F 95% 30.01 in 3.0 mi NNW 11.5 mph - N/A   Drizzle
7:35 PM 45.0 °F 38.9 °F 43.7 °F 95% 30.02 in 4.0 mi NW 12.7 mph - N/A   Overcast
7:55 PM 44.6 °F 39.7 °F 43.2 °F 95% 30.02 in 5.0 mi NW 9.2 mph - N/A   Overcast
8:15 PM 43.9 °F 37.9 °F 42.4 °F 95% 30.03 in 7.0 mi NW 11.5 mph - N/A   Overcast
8:35 PM 43.7 °F 38.6 °F 42.1 °F 94% 30.04 in 10.0 mi NNW 9.2 mph - N/A   Overcast
8:55 PM 43.3 °F 37.2 °F 41.7 °F 94% 30.04 in 10.0 mi NW 11.5 mph - N/A Rain Rain
9:15 PM 43.0 °F 37.2 °F 41.4 °F 94% 30.04 in 7.0 mi NW 10.4 mph - N/A   Overcast
9:35 PM 42.4 °F 36.5 °F 41.0 °F 95% 30.04 in 7.0 mi NW 10.4 mph - N/A   Overcast
9:55 PM 42.4 °F 37.5 °F 41.0 °F 95% 30.05 in 7.0 mi NW 8.1 mph - N/A   Overcast
10:15 PM 42.3 °F 35.9 °F 41.0 °F 95% 30.05 in 7.0 mi NW 11.5 mph - N/A Rain Light Rain
10:35 PM 42.1 °F 36.1 °F 40.8 °F 95% 30.06 in 4.0 mi NW 10.4 mph - N/A Rain Rain
10:55 PM 42.3 °F 37.9 °F 41.0 °F 95% 30.06 in 3.0 mi NW 6.9 mph - N/A   Drizzle
11:15 PM 42.1 °F 37.1 °F 41.0 °F 96% 30.06 in 3.0 mi NW 8.1 mph - N/A   Drizzle
11:35 PM 42.3 °F 37.9 °F 41.0 °F 95% 30.06 in 5.0 mi NW 6.9 mph - N/A   Light Drizzle
11:55 PM 42.3 °F 37.9 °F 41.0 °F 95% 30.06 in 5.0 mi NW 6.9 mph - N/A Rain Light Rain